Location: Mascot Post Office (historical)
(40.2645°N, 99.5462°W)
Time: 02:48:25
(UTC+00:00)

Cosmos 1000 Rocket - Pass Details

Date: 14 July 2020
Orbit: 954 x 992 km, 82.9° (Epoch: 14 August)

Event Time Altitude Azimuth Distance (km) Brightness Sun altitude
Rises 06:30:09 0° 350° (N) 3,715 8.8 -28.1°
Reaches altitude 10° 06:32:42 10° 348° (NNW) 2,762 7.8 -28.1°
Maximum altitude 06:39:00 71° 266° (W) 1,046 4.5 -28.1°
Enters shadow 06:39:28 68° 235° (SW) 1,063 4.4 -28.1°
